Deer Park, WA
on Wednesday, February 20, 2013

Wednesday
Previous Day Next Day
Daily Summary
 ActualAverageRecord
Temperature
Mean Temperature °F 31°F  
Max Temperature 36°F 41°F 45°F (2005)
Min Temperature 14°F 21°F 8°F (2008)
Degree Days
Heating Degree Days 40 34  
Month to date heating degree days 693 705  
Since 1 July heating degree days 4801 5101  
Cooling Degree Days 0 0  
Month to date cooling degree days 0 0  
Year to date cooling degree days 0 0  
Moisture
Dew Point 25°F   
Average Humidity 80    
Maximum Humidity 100    
Minimum Humidity 59    
Precipitation
Precipitation T in 0.05 in 0.13 in (2003)
Month to date precipitation 0.15 1.20  
Year to date precipitation 1.65 3.83  
Wind
Wind Speed 3 mph   
Max Wind Speed 10 mph   
Max Gust Speed 13 mph   
Visibility 4 miles   
Events Fog , Snow   

Key: T is trace of precipitation, MM is missing value
Source: NWS Daily Summary
Time(PST)TemperatureDew PointHumidity Pressure Visibility Wind DirectionWind SpeedGust SpeedPrecipitationEvents Conditions
12:14 AM 30.2°F 30.2°F 100% 29.84 in 2.0 miles SSE 3.5 mph - N/A   Overcast
12:20 AM 30.2°F 30.2°F 100% 29.84 in 1.0 miles Calm Calm - N/A   Overcast
12:33 AM 30.2°F 30.2°F 100% 29.85 in 1.8 miles South 3.5 mph - N/A   Overcast
12:40 AM 30.2°F 30.2°F 100% 29.85 in 2.5 miles SSE 3.5 mph - N/A   Overcast
12:53 AM 30.9°F 30.0°F 96% 29.91 in 2.5 miles Calm Calm - N/A   Overcast
1:04 AM 30.2°F 30.2°F 100% 29.85 in 2.0 miles Calm Calm - 0.00 in Snow Light Snow
1:35 AM 30.2°F 30.2°F 100% 29.86 in 1.8 miles SSE 4.6 mph - 0.00 in Snow Light Snow
1:51 AM 30.2°F 30.2°F 100% 29.86 in 2.5 miles SSE 4.6 mph - 0.00 in   Overcast
1:53 AM 28.9°F 28.9°F 100% 29.92 in 2.0 miles SSE 3.5 mph - 0.00 in   Overcast
1:58 AM 28.4°F 28.4°F 100% 29.86 in 1.2 miles SSE 3.5 mph - N/A   Overcast
2:04 AM 28.4°F 28.4°F 100% 29.86 in 0.8 miles Calm Calm - N/A   Overcast
2:10 AM 28.4°F 28.4°F 100% 29.86 in 1.0 miles Calm Calm - N/A   Overcast
2:15 AM 28.4°F 28.4°F 100% 29.86 in 0.8 miles Calm Calm - N/A   Overcast
2:22 AM 28.4°F 28.4°F 100% 29.86 in 0.5 miles Calm Calm - N/A Fog Light Freezing Fog
2:53 AM 27.0°F 27.0°F 100% 29.93 in 0.2 miles Calm Calm - N/A Fog Light Freezing Fog
3:04 AM 28.4°F 26.6°F 93% 29.87 in 0.5 miles Calm Calm - N/A Fog Light Freezing Fog
3:11 AM 26.6°F 24.8°F 93% 29.87 in 1.0 miles Calm Calm - N/A   Overcast
3:14 AM 26.6°F 24.8°F 93% 29.87 in 0.8 miles Calm Calm - N/A   Overcast
3:23 AM 28.4°F 26.6°F 93% 29.87 in 2.0 miles SSW 3.5 mph - N/A   Overcast
3:31 AM 28.4°F 26.6°F 93% 29.87 in 6.0 miles SSW 3.5 mph - N/A   Overcast
3:53 AM 27.0°F 27.0°F 100% 29.94 in 8.0 miles WSW 4.6 mph - N/A   Overcast
5:53 AM 21.0°F 21.0°F 100% 29.97 in 10.0 miles Calm Calm - N/A   Clear
6:49 AM 21.2°F 19.4°F 93% 29.90 in 1.2 miles Calm Calm - N/A   Partly Cloudy
6:53 AM 19.9°F 19.9°F 100% 29.98 in 1.0 miles Calm Calm - N/A   Partly Cloudy
7:05 AM 19.4°F 19.4°F 100% 29.91 in 2.0 miles Calm Calm - N/A   Clear
7:12 AM 19.4°F 17.6°F 93% 29.91 in 1.5 miles Calm Calm - N/A   Partly Cloudy
7:28 AM 21.2°F 21.2°F 100% 29.91 in 3.0 miles Calm Calm - N/A   Clear
7:37 AM 21.2°F 21.2°F 100% 29.92 in 1.8 miles Calm Calm - N/A   Partly Cloudy
7:53 AM 21.9°F 21.0°F 96% 29.99 in 2.0 miles WSW 3.5 mph - N/A   Mostly Cloudy
8:53 AM 26.1°F 25.0°F 96% 30.00 in 10.0 miles Calm Calm - N/A   Overcast
9:53 AM 28.9°F 27.0°F 92% 29.99 in 10.0 miles WSW 3.5 mph - N/A   Overcast
11:53 AM 35.1°F 23.0°F 61% 29.99 in 10.0 miles Calm Calm - N/A   Clear
12:53 PM 35.1°F 28.9°F 78% 29.98 in 10.0 miles SSW 5.8 mph - N/A   Partly Cloudy
2:53 PM 35.1°F 27.0°F 72% 29.98 in 10.0 miles SSW 6.9 mph - N/A   Clear
3:53 PM 35.1°F 25.0°F 67% 29.99 in 10.0 miles SSW 6.9 mph - N/A   Clear
4:53 PM 32.0°F 25.0°F 75% 30.00 in 10.0 miles SSW 6.9 mph - N/A   Clear
5:53 PM 27.0°F 21.9°F 81% 30.03 in 10.0 miles Calm Calm - N/A   Clear
6:53 PM 23.0°F 21.0°F 92% 30.04 in 10.0 miles Calm Calm - N/A   Clear
8:53 PM 18.0°F 17.1°F 96% 30.04 in 10.0 miles West 4.6 mph - N/A   Clear
9:53 PM 19.0°F 17.1°F 92% 30.05 in 10.0 miles Calm Calm - N/A   Clear
10:53 PM 18.0°F 16.0°F 92% 30.04 in 9.0 miles Calm Calm - N/A   Clear
11:53 PM 17.1°F 14.0°F 88% 30.04 in 3.0 miles Calm Calm - N/A   Clear
Moon Phase
Feb. 20 Feb. 25 Mar. 04 Mar. 11 Mar. 19
Sunrise:06:46 AM (PST) Moon Rise:12:32 PM (PST)2/20
Sunset:05:20 PM (PST) Moon Set:03:24 AM (PST)2/20

Copyright © 2014 The Weather Underground, Inc.